Погода в Ряжске

Хотите узнать прогноз погоды в Ряжске? Тогда Вам сюда: Погода в Ряжске

Поиск расширенной информации на нашем сайте:

Полезная информация:

Новости сайта



02.01.2020
Опубликован Долгосрочный прогноз погоды по городам России и ближнего зарубежья на январь 2020 года.
Карты: Прогноз на январь и февраль 2020 года, Сравнение прогнозируемой аномалии приземной температуры воздуха на январь 2020 года по разным моделям.




Погода в Ряжске - сегодня

Время (UTC), дата Ветер
(°,м/с) 
Видим.   Явления Облачность Т
(°С)
Тd
(°С)
f(%) Тe
(°С)
Pmin
(гПа)
dP
(гПа)
Po
(мм)
O2
(г/м3)
Тmin Tmax R s Состояние
почвы
06 30.11.20 140 (ЮВ) 4000 м  дымка  10/10 300 м 
[St]
+0.1 -0.2 98 -1  1033  0.3  763  307           
09 30.11.20 140 (ЮВ) 4000 м  слаб. снег  10/10 300 м 
[Frnb|Ns]
-0.2 -0.6 97 -2  1033.3  0.2  763  308           
12 30.11.20 140 (ЮВ) 4000 м  слаб. снег  10/10 300 м 
[Frnb|Ns]
-0.8 -1.3 96 -3  1033.1  -0.2  763  308           
15 30.11.20 150 (ЮВ) 10 км  {снег}  10/10 600 м 
[Sc]
-1 -3.1 86 -3  1033.3  0.2  763  309    +0.2  0.8     
18 30.11.20 150 (ЮВ) 4000 м  дымка{снег}  8/0 средняя 
[Ac trans]
-2.2 -3.6 90 -3  1033.5  0.1  763  310           
21 30.11.20 150 (ЮВ) 10 км    9/0 средняя 
[Ac und]
-2.5 -4.5 86 -4  1034  0.5  763  311           
00 01.12.20 150 (ЮВ) 10 км    9/0 средняя 
[Ac und]
-3.9 -5.4 89 -5  1034  -0.1  763  313           
03 01.12.20 160 (Ю) 10 км    8/0 средняя 
[Ac trans]
-4.4 -6.3 87 -6  1034.3  0.3  763  313  -4.4      равномерный
сухой снег
100% 
06 01.12.20 150 (ЮВ) 10 км    9/0 средняя, верхняя 
[Ac trans|Ci sp]
-4.6 -7.3 81 -6  1034.8  0.4  764  314  -4.9         
09 01.12.20 140 (ЮВ) 10 км  позёмок  9/0 средняя, верхняя 
[Ac trans|Ci sp]
-3.1 -7.1 74 -4  1034.7  764  312           
12 01.12.20 150 (ЮВ) 10 км    9/0 средняя 
[Ac und]
-2 -6.3 72 -3  1034.5  -0.1  764  311           
15 01.12.20 140 (ЮВ) 10 км    9/0 средняя 
[Ac und]
-3.3 -6.7 77 -3  1035.1  0.5  764  312    -1.9       
18 01.12.20 160 (Ю) 10 км    9/0 средняя 
[Ac und]
-4.7 -7.3 82 -4  1036.4  1.2  765  314           
21 01.12.20 140 (ЮВ) 10 км    8/0 средняя 
[Ac trans]
-6.1 -8 86 -6  1037.7  1.2  766  316           
00 02.12.20 140 (ЮВ) 10 км    8/0 верхняя 
[Ci sp]
-7 -8.5 89 -8  1038  0.2  766  318           
03 02.12.20 130 (ЮВ) 4000 м  дымка  8/0 верхняя 
[Ci sp]
-8.6 -9.8 91 -8  1038.3  0.2  766  320  -8.6      равномерный
сухой снег
100% 
06 02.12.20 120 (ЮВ) 4000 м  дымка  8/0 средняя, верхняя 
[Ac trans|Ci sp]
-9.1 -10.4 90 -9  1038.8  0.5  766  321  -9.2         
09 02.12.20 140 (ЮВ) 10 км    8/0 верхняя 
[Ci sp]
-5.7 -9.1 77 -7  1038.5  -0.1  766  316           
12 02.12.20 100 (В) 10 км    8/0 верхняя 
[Ci sp]
-5 -8.6 76 -6  1038  -0.4  766  315           
15 02.12.20 100 (В) 10 км    8/0 верхняя 
[Ci sp]
-7.1 -9.1 86 -10  1037.8  -0.3  766  318    -4.7       
18 02.12.20 120 (ЮВ) 10 км    6/0 верхняя 
[Ci sp]
-8.3 -10.6 83 -10  1038  766  319           
21 02.12.20 140 (ЮВ) 10 км    6/0 верхняя 
[Ci sp]
-9.8 -11.1 90 -10  1038.5  0.4  766  321           
00 03.12.20 120 (ЮВ) 10 км    6/0 верхняя 
[Ci sp]
-10.4 -12 88 -10  1038.4  766  322           
03 03.12.20 130 (ЮВ) 10 км    6/0 верхняя 
[Ci sp]
-11.1 -13 86 -11  1038  -0.5  766  323  -11.2      равномерный
сухой снег
100% 
06 03.12.20 130 (ЮВ) 10 км    4/0 верхняя 
[Ci sp]
-11.2 -13.5 83 -13  1038.4  0.3  766  323  -11.5         
Время (UTC), дата Ветер
(°,м/с) 
Видим.   Явления Облачность Т
(°С)
Тd
(°С)
f(%) Тe
(°С)
Pmin
(гПа)
dP
(гПа)
Po
(мм)
O2
(г/м3)
Тmin Tmax R s Состояние
почвы

Для получения пояснительной информации подведите курсор к названию столбца.

ПОГОДА в Ряжске - архив

Всё, что Вы хотите узнать о погоде в Ряжске - удобно и подробно!

Выберите нужную дату (начиная с 1 января 2019* года) и нажмите кнопку "Найти".
Будут отображены архивные сводки погоды по пункту Ряжск, начиная с указанной даты.


Отображать данные в формате CSV (для использования в таблицах Excel)


Внимание! Наш архив погоды предназначен исключительно для личного некоммерческого использования в познавательных целях. Если Вам необходимы официальные справки о состоянии погоды (для производственных, юридических, коммерческих и т.п. целей), обращайтесь в органы Росгидромета.

*Примечание: данная дата относится к архиву по метеостанциям СССР (Россия, СНГ, Балтия).
Архив по метеостанциям Зарубежной Европы и Азии (кроме Китая) хранится 10 дней, по другим регионам земного шара (Китай, Африка, Америка, Австралия, Океания) - 1 день.

Ряжск - район местоположения метеостанции


Название, широта, долгота, высота метеостанции:
Ряжск 53.7°ш. 40.1°д. 127 м над ур. моря [Российская Федерация]

Дополнительная информация

В oтличие oт бoльшинства пoгoдных сайтoв мы публикуем пoдрoбную метеoинфoрмацию в детальнoм прoфессиoнальнoм фoрмате.

Характеристики температуры и влажнoсти вoздуха измеряются на высoте 2 м в тени вдали oт зданий и деревьев.
Скoрoсть ветра измеряется на высoте 10 м (на урoвне рoста челoвека скoрoсть ветра ниже в 1.5-2 раза). Если метеoстанция нахoдится в гoрoде или в лесу, тo скoрoсть ветра занижена на 2-4 м/с пo сравнению с oткрытым местoм. Скoрoсть ветра над акватoриями крупных рек и oзёр, а также на вершинах хoлмoв на 2-5 м/с выше, чем в oбычных услoвиях.
Атмoсфернoе давление в разных тoчках местнoсти мoжет значительнo oтличаться oт давления на метеoстанции, в зависимoсти oт услoвий рельефа (при пoдъёме на 10 м давление пoнижается примернo на 1 мм рт.ст.).